Find Starlink 5212

NORAD ID: 54075 Int'l Des: 2022-136 Owner: SPXS Country: US Constellation: starlink operational
LEOCIRCULAR

Live-Position

3D-Globus wird geladen...

Über Starlink 5212

Beschreibung wird geladen...

Nächste Überflüge

Passes for default location (London). Set your location on the main map for personalized predictions.

Höhenverlauf

Loading altitude history...

Zweizeiliger Elementsatz

1 54075U 22136AA 26120.11877338 -.00001048 00000-0 -47801-4 0 9993
2 54075 53.2154 107.8592 0001336 97.9257 262.1887 15.08834955194687
Epoch: 30. Apr. 2026 • Age: 8 hours

Aktueller Status

Höhe 543.9 km
Geschwindigkeit 7.60 km/s
Subsatellitenpunkt 46.47°N, 153.27°W
Startdatum 20. Okt. 2022
Alter 3.5 years
Typ internet

Technische Details

Klassifizierung Payload
Masse 305.00 kg
Trockenmasse 290.00 kg
Gesamtmasse 305.00 kg
Länge 0.20 m
Durchmesser 2.80 m
Spannweite 9.00 m
Form Box + pan
Hersteller SPXS
Bus-Typ Starlink
Phasenstatus In Orbit
Besitzer/Staat SPXS/US

Most Searched